Regional Weather Roundup
Issued by NWS Grand Forks, ND

Home | Current Version | Previous Version | Text Only | Print | Product List | Glossary On
Versions: 1 2 3 4 5 6 7 8 9 10 11 12 13 14 15 16 17 18 19 20 21 22 23 24 25 26 27 28 29 30 31 32 33 34 35 36 37 38 39 40 41 42 43 44 45 46 47 48 49 50
000
ASUS43 KFGF 030731
RWRFGF
PRAIRIE TO PINES  WEATHER ROUNDUP
NATIONAL WEATHER SERVICE EASTERN NORTH DAKOTA/GRAND FORKS ND
200 AM CDT MON AUG 03 2015

 **SATELLITE DATA USED TO AUGMENT SKY COVER AT AUTOMATED STATIONS**
 *****  WEATHER ACROSS EASTERN NORTH DAKOTA  *****

CITY           SKY/WX    TMP DP  RH WIND       PRES   REMARKS
GRAND FORKS    CLEAR     51  47  86 NW5       29.87S
GRAND FRKS AFB CLEAR     53  48  84 W6        29.88S
DEVILS LAKE    CLEAR     57  46  67 W8        29.92S
FARGO          CLEAR     56  49  77 W7        29.89R
WAHPETON ARPT  SUNNY     50  46  87 W6        29.91S
$$

 ***** WEATHER ACROSS CENTRAL AND WESTERN NORTH DAKOTA  *****

CITY           SKY/WX    TMP DP  RH WIND       PRES   REMARKS
BISMARCK       CLEAR     58  52  80 CALM      29.99S
MINOT          CLEAR     56  50  80 SW9       29.98S
JAMESTOWN      CLEAR     56  50  80 NW5       29.95R
MINOT AFB      CLEAR     52  52  99 W9        29.97S
GARRISON         N/A     56  51  84 N5        30.00R
WILLISTON      CLEAR     57  49  74 E3        30.04R
DICKINSON      CLEAR     52  47  83 W3        30.03S
HETTINGER      CLEAR     51  46  83 CALM      30.05S
$$

 *****  OTHER AIRPORT OBSERVATIONS IN OUR AREA  *****

CITY           SKY/WX    TMP DP  RH WIND       PRES   REMARKS
WALHALLA       FAIR      54  52  94 MISG      29.89S
GRAFTON AIRPOR FAIR      57  52  82 NW7       29.88S
VALLEY CITY AR FAIR      55  54  94 NW6       29.94R
CANDO          FAIR      50  48  93 NW7       29.94R
CAVALIER APRT  FAIR      54  48  82 W5        29.88S
GWINNER        FAIR      57  52  82 W7        29.94S
ROLLA          FAIR      55  50  82 NW9       29.95S
 ***** THE ABOVE OBSERVATIONS ARE NON NWS ARE NOT QUALITY
       CONTROLLED AND MAY MIS-REPORT RAIN FOR SNOW...
$$

  *****  WEATHER ACROSS NORTHERN MINNESOTA  *****

CITY           SKY/WX    TMP DP  RH WIND       PRES   REMARKS
FLAG ISLAND    CLOUDY    61  54  77 NW17      29.78S
WARROAD        CLEAR     57  50  77 W7        29.82S
ROSEAU         PTCLDY    57  50  77 W8        29.83R
HALLOCK        CLEAR     55  50  82 W5        29.87R
THF RVR FALLS  PTCLDY    55  48  76 NW5       29.88R
BAUDETTE       MOCLDY    62  49  62 NW17G24   29.79S
WASKISH        CLOUDY    61  50  67 W10G18    29.81S
CROOKSTON      CLEAR     52  48  87 NW3       29.88S
STEPHEN NDAWN    N/A     54  48  82 W3          N/A
GREENBUSH NDAW   N/A     57  50  77 W5          N/A
$$
  *****  WEATHER ACROSS CENTRAL AND WEST MINNESOTA  *****

CITY           SKY/WX    TMP DP  RH WIND       PRES   REMARKS
FOSSTON        CLEAR     46  41  81 CALM      29.88R
BEMIDJI        CLOUDY    56  46  71 W7        29.85S
PARK RAPIDS    CLEAR     52  48  86 W3        29.87R
ELBOW LAKE     FAIR      55  50  82 W6        29.91R
WADENA         CLEAR     54  48  82 W3        29.88S
DETROIT LAKES  CLEAR     57  50  77 NW6       29.90S
MOORHEAD       CLEAR     55  50  82 NW7       29.90R
FERGUS FALLS   CLEAR     54  48  82 W3        29.90S
MORRIS MN      CLEAR     55  52  88 W6        29.91R
STAPLES        CLEAR     52  48  87 W3        29.88R
$$
  *****  WEATHER ELSEWHERE ACROSS MINNESOTA  *****

CITY           SKY/WX    TMP DP  RH WIND       PRES   REMARKS
DULUTH         CLEAR     58  46  64 W9        29.79R
INTRNTL FALLS  CLOUDY    56  49  77 W5        29.76S
ELY            CLEAR     52  46  82 W5        29.75S
CLOQUET        CLEAR     55  45  67 W6        29.80S
WHEATON        CLEAR     55  52  88 SW6       29.94R
BRAINERD       CLEAR     52  48  86 S3        29.86S
HIBBING        CLEAR     55  44  66 W6        29.79S
ALEXANDRIA     CLEAR     59  51  75 W7        29.91S
SAINT CLOUD    CLEAR     53  50  89 CALM      29.87S
MINNEAPOLIS    CLEAR     65  51  60 W5        29.87S
$$

  *****  WEATHER ACROSS SOUTH DAKOTA  *****

CITY           SKY/WX    TMP DP  RH WIND       PRES   REMARKS
SIOUX FALLS    CLEAR     59  57  93 CALM      29.95S
BROOKINGS      CLEAR     57  54  88 CALM      29.98S
WATERTOWN      CLEAR     59  56  89 CALM      29.96R
HURON          CLEAR     62  58  86 CALM      29.95R
SISSETON         N/A     57  50  77 NW5       29.92R
ABERDEEN       CLEAR     55  53  93 W5        29.96R
MITCHELL       CLEAR     62  58  86 W3        29.95S
PIERRE         CLEAR     60  53  77 E6        29.96S
MOBRIDGE       CLEAR     58  55  90 NE5       29.97S
RAPID CITY     CLEAR     63  52  67 E3        30.04S
$$

  *****  SOME WEATHER IN NEARBY STATES *****

CITY           SKY/WX    TMP DP  RH WIND       PRES   REMARKS
GLASGOW MT     CLEAR     61  47  59 E10       30.01S
GREAT FALLS MT CLEAR     67  48  50 E7        29.96S
CHEYENNE WY    CLOUDY    65  50  58 CALM      30.14S
SCOTTSBLUFF NE CLEAR     66  56  70 E9        30.00S
OMAHA NE       PTCLDY    73  71  93 N7        29.89R
DES MOINES IA  PTCLDY    73  59  61 NE12      29.88R
DAVENPORT IA   CLEAR     69  64  84 NW7       29.80S
CHICAGO IL     MOCLDY    68  66  93 W5        29.75S
EAU CLAIRE WI  CLEAR     61  47  59 W6        29.82S
LA CROSSE WI   CLEAR     66  55  67 NW7       29.82S
$$

  *****  SOME NATIONAL WEATHER *****

CITY           SKY/WX    TMP DP  RH WIND       PRES   REMARKS
LA GUARDIA NY  PTCLDY    78  57  48 SW9       29.83F
RALEIGH NC     PTCLDY    70  65  84 CALM      29.92F
ATLANTA GA     MOCLDY    78  68  71 CALM      29.90F
NEW ORLEANS LA CLEAR     81  75  82 SW7       29.87F
OKLAHOMA CITY  MOCLDY    74  67  78 SE7       29.91F
ALBUQUERQUE NM CLOUDY    72  57  59 N6        30.19R
SALT LAKE CITY CLOUDY    75  53  46 S18G29    30.00R
LOS ANGELES CA CLEAR     70  63  78 E5        29.86S
BOISE ID       CLOUDY    83  44  25 E5        29.79R
SEATTLE WA     MOCLDY    71  55  56 N6        29.89R
$$

*** WEATHER ACROSS MANITOBA...SASKATCHEWAN AND ONTARIO ***
                ***ONTARIO***

CITY           SKY/WX    TMP DP  RH WIND       PRES   REMARKS
GERALDTON      MOCLDY    54  52  94 W6        29.59S
THUNDER BAY    MOCLDY    59  50  72 W9        29.66F
SIOUX LOOKOUT  LGT RAIN  54  50  87 NW12G21   29.70S
TORONTO        LGT RAIN  64  61  88 S12G20    29.60F
BIG TROUT LK   MOCLDY    46  46 100 N5        29.60R
PICKLE LAKE    NOT AVBL
DRYDEN         LGT RAIN  54  50  87 NW8G21    29.73  FOG
KENORA         MOCLDY    57  52  82 NW6       29.78R
$$
                *** MANITOBA***

CITY           SKY/WX    TMP DP  RH WIND       PRES   REMARKS
BRANDON        CLEAR     48  46  93 NW9       29.93R
DAUPHIN        CLEAR     48  46  93 W7        29.93R
ISLAND LAKE    LGT RAIN  54  54 100 NW13G20   29.71S
PILOT MOUND      N/A     48  46  93 W2          N/A
THE PAS        PTCLDY    59  50  72 NW6       29.89S
THOMPSON       CLOUDY    52  48  87 NW6       29.81S
WINNIPEG       MOCLDY    54  52  94 W8        29.86S
LYNN LAKE      CLEAR     46  46 100 N5        29.90R
CHURCHILL      CLOUDY    45  43  93 NE12      29.81R
$$
                ***SASKATCHEWAN***

CITY           SKY/WX    TMP DP  RH WIND       PRES   REMARKS
ESTEVAN        CLEAR     50  48  93 NW7       30.02S
KINDERSLEY     PTCLDY    59  50  72 SE12      30.01S
LLOYDMINSTER   CLEAR     57  48  72 S6        30.00R
PRINCE ALBERT  CLEAR     50  48  93 W5        29.97S
REGINA         CLEAR     52  50  93 W3        30.02R
YORKTON        CLEAR     54  50  87 W8        29.96R
N. BATTLEFORD  CLEAR     52  50  93 SE3       30.01F
LA RONGE       CLEAR     46  41  81 CALM      29.94
SASKATOON      CLEAR     54  52  94 VRB2      30.01S
SWIFT CURRENT  CLEAR     57  52  82 S8        30.03S
$$
NOTE: THESE ARE AUTOMATED STATIONS WITH LIMITED QUALITY CONTROL
      "FAIR" INDICATES FEW OR NO CLOUDS BELOW 12,000 FEET WITH NO
      SIGNIFICANT WEATHER AND/OR OBSTRUCTIONS TO VISIBILITY.
      SKY/WX - SKY CONDITION AND SIGNIFICANT WEATHER.
      TMP - AIR TEMPERATURE.    DP   - DEWPOINT TEMPERATURE.
      RH  - RELATIVE HUMIDITY.  PRES - PRESSURE.
      HX  - HEAT INDEX.         WCI  - WIND CHILL INDEX.
$



USA.gov is the U.S. government's official web portal to all federal, state and local government web resources and services.